Location: Unspecified
(0.0000°N, 0.0000°E)
Time: 12:04:55
(UTC+00:00)

Vanguard 2 Rocket - Visible Passes

Search period start: 23 January 2021 00:00
Search period end: 02 February 2021 00:00
Orbit: 554 x 3325 km, 32.9° (Epoch: 22 January)

Date Brightness Start Highest point End Pass type
(mag) Time Alt. Az. Time Alt. Az. Time Alt. Az.
23 Jan 9.7 02:51:22 14° S 02:51:22 14° S 02:55:07 10° SSE visible
23 Jan 10.3 05:07:33 10° S 05:09:51 11° S 05:12:21 10° SSE visible
25 Jan 10.5 05:23:24 10° S 05:26:02 11° SSE 05:28:53 10° SSE visible
27 Jan 10.6 05:36:29 10° S 05:41:57 13° SSE 05:48:24 10° SE visible
29 Jan 10.6 05:49:21 10° S 05:57:22 18° SSE 06:07:35 10° ESE visible
29 Jan 8.9 19:49:25 10° N 19:49:40 10° N 19:49:40 10° N visible
30 Jan 10.5 04:53:24 10° SSE 04:55:18 10° SSE 04:57:18 10° SSE visible
31 Jan 8.3 20:01:21 10° NNW 20:03:56 19° N 20:03:56 19° N visible
01 Feb 10.5 05:04:21 10° S 05:10:29 15° SSE 05:18:12 10° ESE visible
01 Feb 8.2 19:01:25 10° NNW 19:06:07 18° NNE 19:08:13 15° NE visible
